Regional Weather Roundup
Issued by NWS

Home | Current Version | Previous Version | Graphics & Text | Print | Product List | Glossary On
Versions: 1 2 3 4 5 6 7 8 9 10 11 12 13 14 15 16 17 18 19 20 21 22 23 24 25 26 27 28 29 30 31 32 33 34 35 36 37 38 39 40 41 42 43 44 45 46 47 48 49 50
000
ASUS45 KCYS 270710
RWRWY

WYOMING REGIONAL WEATHER ROUNDUP
NATIONAL WEATHER SERVICE CHEYENNE WY
100 AM MDT WED MAY 27 2015

NOTE:  "FAIR" INDICATES FEW OR NO CLOUDS BELOW 12,000 FEET
WITH NO SIGNIFICANT WEATHER AND/OR OBSTRUCTIONS TO VISIBILITY.

WYZ001-270800-
YELLOWSTONE NATIONAL PARK

CITY           SKY/WX    TMP DP  RH WIND       PRES   REMARKS
LK YELLOWSTONE   N/A     34  32  92 CALM      30.14S
W YELLOWSTONE  NOT AVBL

$$
WYZ002>013-054>058-071-098>099-270800-
NORTHERN WYOMING

CITY           SKY/WX    TMP DP  RH WIND       PRES   REMARKS
JACKSON        FAIR      39  39 100 CALM      30.11R
CODY           MOCLDY    52  46  82 CALM      29.99F
GREYBULL       CLOUDY    57  48  72 N10       29.94F
WORLAND        LGT RAIN  54  51  90 SE7       29.98R
SHERIDAN       FAIR      49  47  93 SW8       29.97F
BUFFALO        LGT RAIN  51  47  86 W10       30.01F
GILLETTE       CLOUDY    52  48  86 NE5       29.98F
HULETT         FAIR      55  46  71 SW5       30.00F
NEWCASTLE      FAIR      54  46  76 SE8       30.03F

$$
WYZ014>020-022>026-101>103-270800-
CENTRAL WYOMING

CITY           SKY/WX    TMP DP  RH WIND       PRES   REMARKS
BIG PINEY      LGT RAIN  46  43  89 CALM      30.11F
PINEDALE       RAIN      45  43  93 CALM      30.13S
DUBOIS         CLOUDY    43  36  75 NW8       30.08S
LANDER         CLOUDY    49  43  80 W5        30.01R
RIVERTON       CLOUDY    52  47  83 N5        30.02F
CASPER         CLOUDY    52  49  89 E5        30.04R
DOUGLAS        LGT RAIN  53  50  89 S3        30.05S

$$
WYZ021-027>030-104>119-270800-
SOUTHERN WYOMING

CITY           SKY/WX    TMP DP  RH WIND       PRES   REMARKS
EVANSTON       FAIR      42  40  92 SW10      30.14S
KEMMERER       FAIR      41  39  93 SW7       30.14F
FORT BRIDGER   SUNNY     45  43  93 W10       30.16F
ROCK SPRINGS   FAIR      47  42  83 S6        30.11F
DIXON          CLOUDY    49  46  88 CALM      30.16S
RAWLINS        FAIR      46  43  89 SE3       30.11S
SARATOGA       DRIZZLE   46  43  87 SE5       30.14S
LARAMIE        LGT RAIN  47  43  86 SE3       30.13F
CHEYENNE       MOCLDY    48  45  89 W5        30.09F
TORRINGTON     CLOUDY    55  53  93 E9        30.02F
PINE BLUFFS    PTSUNNY   52  46  82 S3        30.07S

$$


USA.gov is the U.S. government's official web portal to all federal, state and local government web resources and services.